Tracking 22100 objects as of 19-Jan-2021
HD Live streaming from Space Station
objects crossing your sky now

STARLINK-1174

Track STARLINK-1174 now!
10-day predictions
STARLINK-1174 is classified as:


NORAD ID: 45075
Int'l Code: 2020-006AH
Perigee: 555.9 km
Apogee: 557.8 km
Inclination: 53.0 °
Period: 95.6 minutes
Semi major axis: 6927 km
RCS: Unknown
Launch date: January 29, 2020
Source: United States (US)
Launch site: AIR FORCE EASTERN TEST RANGE (AFETR)
aabbcc
Your satellite tracking list
Your tracking list is empty




NASA's NSSDC Master Catalog

Two Line Element Set (TLE):
1 45075U 20006AH  21018.81150661 -.00001253  00000-0 -66863-4 0  9995
2 45075  53.0022  47.7626 0001319  70.9364 289.1767 15.05582290 54006
Source of the keplerian elements: AFSPC